Location: Ripley
(48.3812°N, 115.4473°W)
Time: 04:34:26
(UTC+00:00)

First-Move - Visible Passes

Search period start: 26 June 2022 00:00
Search period end: 06 July 2022 00:00
Orbit: 571 x 660 km, 97.6° (Epoch: 25 June)

Date Brightness Start Highest point End Pass type
(mag) Time Alt. Az. Time Alt. Az. Time Alt. Az.
29 Jun ? 10:21:00 10° ENE 10:21:36 10° E 10:22:13 10° E visible
30 Jun ? 10:35:12 10° NE 10:37:46 15° E 10:40:21 10° SE visible
01 Jul ? 10:50:29 10° NE 10:53:53 21° E 10:57:19 10° SE visible
05 Jul ? 10:20:18 10° ENE 10:21:14 11° E 10:22:12 10° E visible
